IRIDIUM 17

Last updated on Wed Nov 29 2017 00:19:02 GMT+0000 (Coordinated Universal Time)

1 24870U 97034B 17332.36598145 .00000158 00000-0 47853-4 0 9996 2 24870 86.3938 311.3696 0003608 66.8476 293.3101 14.35789987 67736

Satellite not in orbit

IRIDIUM 17